If you wish to contribute or participate in the discussions about articles you are invited to join SKYbrary as a registered user

 Actions

Liège

From SKYbrary Wiki

EBLG /
Revision as of 15:04, 28 March 2013 by Editor1 (talk | contribs) (Forum)
(diff) ← Older revision | Latest revision (diff) | Newer revision → (diff)
Airport
ICAO: EBLG
Summary
Name Liège
Region Europe
Territory Belgium BE.gif
Location Liège
Serving
Coordinates 50° 38' 38.94" N, 5° 27' 17.02" E
Runways
Designator Length Width Surface ROPS
05L/23R 2340 m7,677.165 ft
45 m147.638 ft
ASP yes/yes
05R/23L 3287 m10,784.121 ft
45 m147.638 ft
ASP yes/yes


METAR
Observation EBLG 170850Z 22008KT 9999 FEW018 BKN035 13/11 Q1011 NOSIG
Station Bierset
Date/Time 17 October 2019 08:50:00
Wind direction 220°
Wind speed 08 kts
Lowest cloud amount few clouds
Temperature 13°C
Dew point 11°C
Humidity 87%
QNH 1011 hPa
Weather condition n/a


Liège Airport

ICAO: EBLG IATA: LGG

Description

Liège Airport, also called Liège-Bierset, is a cargo airport in Belgium.

Climatology

Temperate Marine climate/Oceanic climate (Köppen climate classification Cfb) - Moderately cool summer and comparatively warm winter.

Maps

Terrain

Loading map...

Airport Layout

Loading map...




Accidents & Serious Incidents at or in vicinity of EBLG

None on SKYbrary